Vertical_Velocity
-1 -1 -2 -3 -4 -3 -1 1 1 -0 -0 2 5 7 11 17 21 21 19 16 13 11 9 7 8 9 9 7 5 2 -1 -3 -1 2 5 8 7 5 4 4 5 7 8 8 7 5 5 6 10 11 9 4 1 0 -0 -0 -0 -0 -0 -1 -1 -0 -0 0 -0 -0 -0 -1 -0
-0 -1 -1 -2 -4 -4 -2 2 1 -0 -1 0 3 5 7 10 14 16 18 17 14 12 10 10 11 12 12 12 10 7 5 2 1 2 3 5 4 4 3 3 6 7 7 6 5 4 4 5 9 13 15 11 3 -1 -2 -2 -1 -1 -1 -2 -2 -1 -1 -1 -1 -0 -0 0 1
1 1 1 -1 -4 -4 -2 1 1 1 -0 0 3 4 5 7 9 11 13 14 14 12 10 8 9 11 14 16 14 12 10 7 5 3 2 2 1 1 0 2 6 7 7 5 3 3 3 3 5 7 9 8 3 -1 -2 -2 -1 -1 -1 -2 -1 -1 -1 -1 -1 -1 -0 0 1
2 1 0 -1 -2 -3 -2 0 3 2 1 0 3 4 4 5 6 7 8 10 12 11 8 7 7 9 10 13 13 12 12 11 8 5 3 2 2 0 -0 1 4 6 7 5 3 3 2 3 3 3 3 2 0 -0 -1 -0 -0 -0 -1 -1 -1 -1 -1 -1 -1 -1 -0 -0 0
1 1 1 1 -1 -2 -2 0 4 4 2 2 3 3 3 4 4 4 5 7 8 8 9 8 7 6 6 8 8 9 10 10 9 7 5 4 2 2 1 1 1 3 5 6 5 4 3 2 2 2 1 1 1 1 1 1 1 1 0 0 -1 -1 -0 0 -0 -0 0 0 1
1 2 2 1 -0 -2 -2 -0 3 4 4 4 3 2 2 3 3 3 3 3 4 7 9 8 6 5 5 6 6 6 6 7 8 7 6 4 3 3 2 1 1 1 2 3 5 5 5 3 2 1 0 1 1 1 2 2 1 1 1 1 -0 0 1 1 1 1 1 1 1
2 2 2 0 -1 -1 -2 -1 2 4 6 5 4 2 1 0 1 1 1 -0 2 4 5 5 5 5 5 5 5 5 5 5 6 7 6 5 4 3 2 2 3 2 2 1 3 4 5 6 5 3 1 0 -0 0 1 1 1 1 1 1 1 2 2 2 2 2 2 2 2
3 2 1 0 -0 -1 -1 -2 1 4 6 5 4 2 -0 -1 0 0 -0 -1 -0 0 1 4 5 4 5 6 5 5 4 4 5 6 6 5 5 4 3 2 2 3 3 3 2 2 3 4 6 6 5 4 2 1 1 1 1 1 2 2 2 2 2 2 2 2 2 2 2
2 1 1 1 0 -1 -1 -1 0 3 5 6 5 3 1 -0 -1 -1 -1 -1 -3 -2 1 3 2 3 3 4 4 4 4 4 4 4 5 5 4 4 3 2 2 2 3 4 3 2 1 1 2 3 4 5 4 4 3 3 2 2 2 3 2 2 1 2 2 2 1 2 1
1 2 2 1 -1 -1 -0 0 0 2 5 8 7 5 2 -1 -3 -3 -2 -2 -3 -2 -1 -1 1 2 2 1 2 2 2 2 3 3 3 3 3 3 2 2 1 1 2 3 3 2 2 1 0 1 1 1 2 3 3 4 3 3 3 3 2 1 1 1 1 1 1 1 0
1 2 2 1 -0 0 1 1 0 2 4 7 8 7 4 1 -1 -3 -3 -3 -2 -3 -4 -2 1 1 0 0 1 1 1 1 1 1 2 2 2 2 2 1 1 1 1 1 2 2 2 1 1 0 -0 -1 -1 -0 1 1 1 2 2 2 1 1 1 1 1 0 0 0 -0
1 1 1 1 1 1 1 -0 -0 1 3 5 7 8 8 5 2 -0 -2 -2 -2 -3 -2 1 1 0 -1 0 -0 -1 -1 -1 -1 -0 0 1 1 2 2 2 1 1 1 1 1 2 2 1 1 1 0 -0 -0 -0 -0 -0 -0 0 0 0 0 0 0 0 0 -0 -0 0 0
0 1 1 1 2 1 0 -0 1 1 1 2 5 7 9 9 7 4 2 -1 -1 2 3 2 -0 -1 -0 0 -1 -1 -1 -2 -1 -1 -1 -1 -0 1 2 2 2 1 1 0 1 1 1 1 1 1 0 -0 -0 -0 -0 0 -0 -0 0 0 -0 -0 -0 -0 -0 -1 -1 -0 -0
-0 -0 0 1 2 1 1 1 1 1 1 1 2 4 6 8 9 8 5 2 3 5 5 3 0 -0 -0 -1 -1 -1 -1 -1 -1 -1 -2 -2 -2 -1 -0 1 1 1 0 -0 -0 -1 -1 -0 0 0 -0 -1 -1 -1 -0 -0 -0 -0 -0 0 -0 -0 -0 0 -0 -1 -1 -1 -1
-1 -1 0 1 1 1 1 1 1 1 1 1 1 2 3 4 6 7 7 5 4 4 5 5 2 0 -1 -0 -1 -1 -1 0 -0 -1 -2 -2 -2 -2 -1 -1 -0 -0 -0 -1 -1 -2 -2 -1 -1 -1 -1 -1 -2 -2 -1 -2 -2 -2 -1 -1 -1 -0 -0 -0 -0 -1 -1 -2 -1
-1 -0 0 1 0 0 1 1 1 1 1 1 2 2 1 1 2 4 5 4 3 3 4 4 2 1 -1 -2 -2 -1 -0 -0 -1 -1 -1 -2 -2 -2 -1 -1 -1 -1 -1 -1 -2 -2 -2 -2 -2 -2 -3 -3 -3 -3 -3 -3 -3 -3 -3 -3 -2 -2 -1 -1 -1 -2 -2 -2 -3
-1 -0 -0 -0 -0 0 0 1 1 0 1 1 2 2 0 -0 1 1 1 1 2 2 1 1 2 1 -1 -5 -2 -0 -0 -1 -2 -2 -2 -3 -2 -2 -1 -1 -1 -1 -0 -0 -1 -1 -2 -2 -2 -2 -3 -3 -3 -3 -3 -3 -3 -4 -4 -4 -4 -3 -3 -3 -3 -3 -3 -3 -4
-1 -1 -1 -1 -1 -0 -0 0 0 -0 0 1 2 1 0 1 0 -1 -2 -0 1 -0 -1 -0 2 1 -1 -4 -2 -1 -1 -2 -2 -2 -2 -2 -3 -2 -2 -1 -0 0 0 0 -0 -0 -0 -1 -1 -1 -2 -2 -3 -3 -3 -2 -3 -3 -4 -4 -4 -4 -4 -3 -4 -4 -4 -4 -5
-1 -1 -1 -1 -1 -1 -1 -1 -1 -1 -0 1 1 1 1 1 -1 -1 -1 -0 -1 -1 -1 0 1 0 -1 -2 -2 -2 -1 -1 -1 -1 -2 -2 -2 -3 -2 -2 -0 0 1 1 1 1 1 0 -0 -0 -1 -1 -2 -2 -2 -1 -2 -2 -2 -3 -3 -3 -3 -3 -3 -4 -4 -4 -5
-1 -1 -1 -1 -1 -1 -1 -2 -2 -1 -1 -0 -0 -0 -1 -1 -1 -0 -1 -1 -1 0 1 1 0 -0 -0 -0 -1 -2 -2 -1 -0 -1 -1 -0 -0 -1 -2 -1 -1 0 1 2 2 2 1 1 0 0 -0 -0 -1 -1 -1 -1 -1 -1 -1 -1 -2 -2 -2 -2 -3 -3 -3 -4 -4
-1 -1 -1 -0 -1 -1 -2 -2 -2 -1 -1 -1 -2 -2 -1 -0 0 0 -0 0 2 2 1 0 0 0 0 0 -1 -2 -2 -0 0 -0 -0 1 1 1 1 1 0 -0 1 2 2 2 1 1 1 0 0 0 -0 -0 0 0 0 -0 -0 -0 -1 -2 -2 -2 -2 -2 -3 -3 -3
-1 -1 -0 -0 -1 -2 -2 -1 -1 -1 -1 -1 -1 -0 0 1 0 0 1 3 2 1 0 0 1 1 1 1 -0 -1 -1 -0 -1 -1 -1 1 1 2 3 3 1 1 1 1 1 1 1 1 0 0 0 0 0 1 1 1 1 0 -0 -1 -2 -2 -2 -2 -2 -2 -2 -2 -2
-1 -0 -0 -1 -1 -1 -1 -0 -0 -0 -0 0 1 1 1 0 -0 0 1 1 0 -0 -0 1 1 1 1 1 1 1 0 -1 -2 -2 -1 0 0 1 1 2 2 2 2 2 2 1 0 -0 -0 -0 0 0 1 1 2 2 1 0 -0 -1 -2 -3 -3 -3 -2 -2 -2 -1 -1
-0 -0 -0 -0 -0 0 0 1 1 1 1 1 1 0 -0 -1 -1 -1 -1 -2 -2 -1 1 1 1 0 0 1 1 2 1 1 -0 -0 0 1 -0 -0 0 0 1 1 2 3 2 0 -1 -1 -1 -1 -0 0 1 1 2 1 0 -1 -1 -2 -3 -3 -3 -3 -2 -2 -1 -1 -1
-0 0 0 0 1 1 1 2 1 1 0 0 -0 -1 -1 -1 -1 -2 -2 -2 -1 -0 1 1 0 0 1 1 1 1 2 2 2 2 2 1 0 0 0 0 -0 1 2 2 1 -1 -1 -1 -1 -1 -1 -0 0 1 1 -0 -1 -2 -2 -3 -3 -3 -3 -2 -1 -1 -1 -1 -1
1 1 1 1 1 2 2 1 1 1 1 0 -0 -1 -1 -1 -1 -1 -1 -1 -1 -0 0 0 0 0 0 0 1 1 1 1 2 2 2 1 1 1 1 0 0 1 1 1 -0 -1 -1 -0 -1 -1 -1 -1 -1 -1 -1 -2 -2 -3 -3 -3 -2 -2 -1 -1 -0 -0 -0 -0 -0
2 2 2 2 2 2 1 1 2 1 1 0 -0 -0 -0 1 0 -0 -1 -1 -1 -0 -0 -1 -1 -0 0 0 0 -0 -0 0 1 1 0 0 1 1 0 0 1 1 0 -0 -1 -0 0 0 -0 -0 -1 -1 -1 -2 -2 -3 -3 -2 -2 -2 -1 -0 0 -0 0 0 0 -0 -0
3 3 3 3 2 2 2 2 1 1 1 1 1 1 1 1 0 -1 -1 -1 -0 -0 -1 -2 -1 -0 1 0 -0 -0 0 1 1 0 -0 0 0 -0 -0 -0 -0 -0 -0 -0 -1 -0 0 0 -0 -0 -1 -1 -1 -2 -2 -2 -2 -1 -1 -1 0 1 0 -0 -0 -0 -0 -1 -1
3 3 3 3 2 2 2 1 1 1 1 2 1 1 1 0 -0 -0 -0 1 -0 -1 -2 -2 0 1 0 -2 -1 1 2 2 1 1 1 1 0 -0 -0 -0 -0 -0 -0 -0 -0 -0 0 -0 -1 -1 -1 -1 -1 -1 -0 -0 -0 0 0 0 0 0 -0 -1 -1 -1 -1 -2 -2
3 3 2 2 2 2 1 1 1 2 2 2 1 1 1 1 1 1 1 1 -0 -1 -0 1 1 -1 -2 -2 1 2 2 0 1 2 2 1 0 0 0 0 -0 -0 -0 0 -0 -0 -0 -0 -1 -0 -0 1 1 1 1 1 1 1 0 0 0 -0 -1 -1 -1 -1 -2 -2 -2
2 2 2 2 2 1 1 2 2 2 2 2 2 2 2 2 2 2 2 1 1 1 2 2 -0 -2 -2 0 1 1 -0 -0 1 1 1 0 1 1 1 1 -0 -0 -0 0 -0 -0 -0 -0 -0 -0 0 0 0 0 0 0 -0 -0 -1 -1 -1 -1 -2 -2 -1 -1 -2 -1 -1
2 2 2 2 2 2 2 2 2 2 2 2 3 3 3 3 3 3 2 2 2 2 2 0 -1 -0 1 2 0 -1 -1 -0 0 -0 -0 -0 0 1 1 0 -1 -0 0 0 -0 -0 0 1 0 0 0 0 -0 -1 -1 -1 -1 -1 -1 -1 -1 -2 -2 -1 -1 -1 -1 -1 -1
2 2 2 2 2 2 2 2 2 3 3 3 3 3 3 3 3 3 3 2 2 2 2 1 1 2 2 1 -0 -1 -1 0 -0 -1 -1 -0 -0 -0 -0 -1 -1 -0 1 1 0 1 1 1 1 1 0 0 -0 -1 -1 -1 -1 -1 -2 -2 -2 -1 -1 -1 -1 -1 -1 -1 -1
2 2 2 2 2 2 2 2 3 3 3 3 2 2 2 2 2 2 2 2 2 2 2 2 2 1 1 0 -0 -0 -0 0 -0 -1 -1 -1 -0 -0 -1 -1 -0 1 1 0 0 1 2 2 1 1 1 0 0 -0 -1 -1 -1 -1 -1 -2 -2 -1 -1 -2 -2 -2 -1 -1 -1
2 2 2 2 2 3 3 3 3 3 2 2 2 2 2 2 2 2 2 2 1 1 1 1 0 0 0 -0 -0 -0 -0 0 -0 -1 -0 0 0 -0 -1 -1 0 1 0 -1 -0 1 2 1 1 1 1 1 0 0 -0 -1 -1 -1 -1 -2 -2 -2 -2 -2 -2 -2 -2 -1 -2
2 2 2 2 2 3 3 3 2 2 2 2 2 2 1 1 1 1 1 1 0 -0 -0 0 0 0 0 0 0 0 1 1 1 0 0 1 0 -0 -1 -0 0 -0 -1 -1 -0 1 1 0 -0 0 0 1 0 0 -0 -0 -1 -1 -1 -1 -2 -2 -2 -1 -2 -2 -2 -1 -2
2 2 2 2 2 2 2 2 2 2 2 2 1 1 1 1 1 1 1 1 0 0 1 1 1 1 0 1 1 1 1 1 1 1 0 1 0 -0 -0 0 -0 -1 -1 -2 -1 -0 -0 -1 -1 -0 0 0 -0 -0 -0 -0 -1 -1 -1 -2 -2 -1 -1 -1 -2 -2 -2 -1 -1
1 1 1 1 1 1 1 1 1 1 1 1 1 1 1 0 0 0 0 0 0 1 1 1 1 1 1 2 2 1 1 1 1 1 1 1 0 0 -0 -0 -0 -1 -1 -1 -1 -1 -1 -1 -0 0 0 0 -1 -0 -0 -0 -1 -1 -1 -1 -1 -1 -1 -1 -1 -1 -1 -1 -1
-0 -0 -0 -0 -0 -0 -0 -0 -0 -0 -0 -0 -0 -0 -0 -0 -0 -0 0 0 0 1 1 1 0 1 2 2 1 1 1 1 1 1 1 1 1 1 0 0 0 0 0 -0 -1 -1 -0 -0 -0 0 0 -0 -0 -0 -0 -0 -1 -1 -1 -0 -0 -1 -1 -1 -1 -1 -1 -1 -1
-1 -1 -1 -1 -1 -1 -1 -1 -0 -0 -0 -0 -0 -1 -1 -1 -0 -0 -0 -0 0 0 1 0 1 1 2 1 1 1 1 2 2 1 1 1 2 1 1 0 1 1 1 0 -0 -0 0 0 0 0 0 -0 -0 -0 0 -0 -1 -1 -1 -0 -1 -1 -2 -1 -1 -1 -2 -2 -1
-1 -1 -1 -1 -0 -0 -0 -0 -0 -0 -0 -1 -1 -1 -1 -1 -1 -0 -0 -0 0 1 1 1 1 1 1 1 1 1 2 2 1 1 1 1 2 1 1 1 1 2 2 1 0 0 0 0 -0 -0 -0 -0 -0 -0 -0 -1 -2 -2 -2 -1 -1 -2 -3 -2 -2 -2 -3 -3 -2
Height
5635 5638 5642 5645 5648 5651 5653 5654 5655 5657 5658 5660 5662 5664 5666 5668 5670 5671 5673 5675 5677 5678 5681 5683 5685 5687 5688 5690 5691 5693 5694 5695 5695 5696 5698 5699 5700 5702 5703 5703 5705 5706 5707 5708 5708 5709 5711 5712 5714 5715 5716 5716 5717 5718 5719 5720 5721 5722 5723 5724 5725 5725 5727 5728 5729 5730 5732 5733 5734
5631 5634 5637 5640 5643 5646 5648 5650 5651 5652 5653 5655 5657 5659 5661 5663 5665 5667 5668 5670 5672 5674 5677 5679 5681 5684 5686 5687 5687 5688 5690 5691 5692 5693 5693 5695 5696 5698 5699 5700 5702 5703 5703 5704 5706 5707 5708 5710 5711 5713 5713 5713 5714 5715 5716 5717 5718 5719 5720 5721 5722 5723 5724 5725 5727 5728 5729 5730 5731
5627 5630 5633 5636 5639 5642 5644 5646 5647 5648 5649 5651 5653 5655 5657 5659 5661 5662 5664 5666 5668 5670 5672 5675 5678 5681 5683 5684 5683 5684 5686 5687 5689 5690 5690 5691 5692 5693 5695 5697 5698 5700 5701 5702 5703 5704 5705 5707 5708 5709 5710 5711 5712 5713 5713 5714 5716 5717 5718 5718 5719 5720 5722 5723 5724 5725 5726 5728 5728
5623 5626 5629 5632 5635 5638 5640 5642 5643 5644 5646 5648 5649 5650 5652 5654 5656 5658 5659 5661 5663 5666 5668 5670 5673 5675 5678 5679 5679 5680 5681 5683 5685 5686 5687 5688 5689 5690 5692 5693 5695 5697 5698 5699 5700 5701 5703 5703 5705 5706 5707 5708 5709 5710 5711 5712 5713 5714 5715 5716 5717 5718 5719 5720 5721 5722 5723 5724 5726
5619 5622 5624 5627 5630 5633 5636 5638 5639 5640 5642 5643 5645 5646 5648 5650 5651 5653 5655 5657 5659 5661 5663 5666 5668 5670 5673 5674 5675 5676 5678 5679 5681 5682 5683 5685 5686 5688 5689 5690 5691 5693 5694 5696 5698 5699 5700 5701 5702 5703 5704 5705 5707 5708 5708 5709 5710 5711 5712 5713 5714 5715 5716 5717 5718 5719 5720 5722 5723
5615 5618 5620 5623 5626 5628 5631 5633 5635 5636 5638 5639 5641 5642 5643 5645 5647 5649 5651 5653 5655 5657 5659 5661 5664 5666 5668 5670 5672 5673 5675 5676 5677 5678 5680 5681 5683 5684 5686 5687 5688 5689 5691 5693 5694 5696 5697 5698 5699 5700 5701 5703 5704 5705 5706 5707 5708 5708 5709 5711 5712 5712 5713 5714 5715 5717 5718 5719 5720
5611 5614 5616 5619 5622 5624 5627 5629 5630 5632 5633 5635 5637 5638 5639 5641 5643 5645 5647 5649 5650 5653 5655 5657 5659 5662 5664 5667 5668 5670 5672 5673 5674 5675 5677 5678 5679 5681 5682 5683 5684 5685 5687 5688 5690 5692 5694 5695 5697 5698 5698 5700 5701 5702 5703 5704 5705 5706 5707 5708 5708 5710 5711 5712 5713 5714 5715 5716 5717
5608 5610 5613 5615 5618 5620 5623 5625 5626 5628 5629 5631 5633 5634 5635 5637 5638 5641 5643 5645 5647 5648 5651 5653 5655 5657 5659 5662 5665 5667 5669 5670 5671 5672 5673 5675 5676 5677 5678 5680 5681 5683 5684 5685 5687 5688 5690 5691 5693 5694 5696 5697 5698 5699 5700 5701 5702 5703 5704 5705 5706 5707 5708 5709 5710 5711 5712 5713 5714
5604 5607 5609 5611 5614 5617 5619 5621 5623 5624 5625 5627 5628 5630 5632 5633 5634 5637 5639 5641 5643 5645 5647 5648 5650 5652 5655 5658 5660 5663 5665 5667 5668 5669 5670 5671 5673 5674 5675 5677 5678 5679 5681 5682 5683 5685 5686 5688 5689 5690 5692 5693 5695 5696 5697 5698 5699 5700 5701 5702 5703 5704 5705 5706 5707 5708 5709 5710 5711
5601 5603 5605 5608 5611 5613 5616 5618 5620 5621 5622 5623 5624 5626 5628 5630 5631 5633 5635 5637 5639 5641 5643 5645 5646 5648 5650 5653 5656 5658 5661 5663 5664 5666 5667 5668 5670 5671 5672 5673 5675 5676 5678 5679 5681 5682 5683 5684 5685 5686 5688 5689 5691 5692 5693 5695 5696 5697 5698 5699 5700 5701 5702 5703 5704 5705 5706 5707 5708
5598 5600 5602 5605 5607 5610 5613 5615 5617 5618 5619 5619 5620 5622 5624 5626 5628 5629 5630 5632 5635 5638 5640 5641 5643 5644 5646 5648 5651 5654 5657 5659 5661 5662 5663 5665 5666 5668 5669 5671 5672 5673 5675 5676 5678 5679 5680 5682 5683 5683 5685 5686 5687 5689 5690 5692 5693 5694 5695 5696 5698 5698 5699 5700 5701 5702 5703 5704 5705
5595 5597 5599 5602 5604 5607 5609 5612 5614 5615 5617 5617 5618 5619 5620 5622 5624 5626 5627 5629 5631 5633 5635 5637 5639 5641 5643 5644 5647 5649 5652 5655 5657 5658 5660 5661 5663 5664 5666 5667 5669 5670 5672 5673 5675 5676 5678 5679 5680 5681 5682 5683 5684 5686 5687 5688 5690 5691 5692 5693 5694 5696 5697 5698 5698 5699 5700 5701 5702
5592 5594 5596 5598 5601 5603 5606 5608 5611 5613 5614 5615 5616 5616 5617 5619 5620 5622 5624 5626 5628 5629 5631 5634 5636 5638 5639 5641 5643 5645 5648 5650 5652 5654 5656 5657 5659 5661 5662 5664 5665 5667 5669 5670 5672 5673 5674 5676 5677 5678 5679 5680 5682 5683 5684 5685 5687 5688 5689 5690 5691 5693 5693 5694 5695 5696 5697 5698 5698
5589 5591 5593 5595 5598 5600 5603 5605 5608 5610 5612 5613 5614 5615 5615 5616 5618 5619 5621 5623 5625 5626 5628 5630 5632 5634 5636 5638 5640 5642 5643 5646 5648 5650 5652 5653 5655 5657 5658 5660 5662 5663 5665 5667 5668 5670 5671 5672 5673 5675 5676 5677 5678 5680 5681 5683 5684 5685 5686 5687 5688 5689 5690 5691 5692 5693 5693 5694 5695
5586 5588 5590 5592 5595 5597 5599 5602 5604 5606 5608 5610 5611 5613 5613 5614 5616 5617 5618 5620 5622 5624 5626 5627 5629 5631 5633 5635 5637 5638 5640 5642 5644 5646 5648 5650 5651 5653 5654 5656 5658 5659 5661 5663 5664 5666 5668 5669 5670 5671 5673 5674 5675 5677 5678 5679 5681 5682 5683 5684 5685 5686 5687 5688 5688 5689 5690 5691 5692
5583 5585 5587 5589 5591 5593 5596 5598 5600 5603 5605 5607 5608 5610 5611 5613 5613 5615 5616 5618 5620 5622 5623 5625 5626 5628 5629 5632 5633 5635 5637 5639 5641 5643 5645 5646 5648 5649 5651 5652 5653 5655 5657 5658 5660 5662 5663 5665 5666 5668 5669 5671 5672 5673 5675 5676 5677 5678 5680 5681 5682 5683 5683 5684 5685 5686 5687 5688 5688
5580 5582 5584 5586 5588 5590 5592 5594 5597 5599 5602 5603 5605 5607 5608 5610 5611 5612 5614 5615 5617 5619 5621 5622 5623 5625 5627 5629 5630 5632 5634 5636 5638 5640 5642 5643 5645 5646 5648 5648 5650 5651 5653 5654 5656 5658 5659 5661 5662 5664 5665 5667 5668 5669 5671 5672 5673 5675 5676 5677 5678 5679 5680 5681 5682 5683 5683 5684 5685
5578 5579 5581 5583 5585 5587 5589 5591 5593 5596 5598 5600 5602 5603 5605 5606 5608 5609 5611 5613 5614 5616 5618 5619 5620 5622 5623 5625 5627 5628 5630 5632 5634 5636 5638 5640 5642 5643 5644 5645 5647 5648 5649 5651 5653 5654 5655 5657 5658 5660 5661 5663 5664 5665 5667 5668 5669 5671 5672 5673 5674 5675 5676 5677 5678 5679 5680 5681 5682
5575 5577 5578 5580 5582 5584 5586 5588 5590 5592 5594 5597 5598 5600 5602 5603 5605 5606 5608 5609 5611 5613 5615 5616 5618 5619 5620 5622 5623 5625 5627 5628 5630 5632 5634 5636 5638 5640 5641 5642 5643 5645 5646 5648 5649 5650 5652 5653 5654 5656 5657 5658 5660 5661 5662 5664 5665 5666 5668 5668 5670 5671 5672 5673 5674 5675 5676 5677 5678
5572 5574 5576 5577 5579 5581 5583 5585 5587 5589 5591 5593 5595 5597 5599 5600 5602 5604 5605 5607 5608 5610 5612 5613 5614 5616 5617 5618 5620 5622 5623 5625 5627 5628 5630 5632 5634 5636 5638 5639 5640 5642 5643 5644 5645 5647 5648 5649 5651 5652 5653 5654 5656 5657 5658 5659 5661 5662 5663 5664 5665 5666 5668 5668 5669 5671 5672 5673 5674
5569 5571 5573 5574 5576 5578 5580 5582 5584 5586 5588 5590 5593 5594 5596 5598 5599 5601 5603 5604 5605 5607 5608 5610 5611 5613 5614 5615 5617 5619 5620 5622 5624 5625 5627 5629 5631 5632 5634 5635 5637 5638 5640 5641 5642 5643 5645 5646 5647 5648 5650 5651 5652 5653 5654 5655 5656 5657 5658 5659 5661 5662 5663 5664 5665 5666 5668 5668 5670
5567 5568 5570 5572 5574 5576 5578 5579 5582 5583 5586 5588 5590 5592 5593 5595 5597 5598 5599 5601 5603 5604 5606 5607 5608 5609 5611 5612 5614 5615 5617 5619 5621 5623 5624 5626 5628 5629 5630 5632 5634 5635 5637 5638 5639 5640 5641 5643 5644 5645 5646 5647 5648 5649 5650 5651 5652 5653 5654 5655 5656 5658 5659 5660 5661 5662 5663 5664 5666
5564 5566 5568 5569 5571 5573 5575 5577 5579 5581 5583 5585 5586 5588 5590 5592 5593 5595 5596 5598 5599 5601 5603 5603 5605 5607 5608 5609 5611 5612 5614 5616 5618 5619 5621 5623 5624 5626 5627 5628 5630 5632 5633 5634 5635 5637 5638 5639 5640 5641 5643 5643 5644 5645 5647 5648 5648 5649 5650 5651 5653 5654 5655 5656 5657 5658 5659 5660 5661
5563 5564 5566 5567 5569 5571 5573 5575 5577 5578 5580 5581 5583 5585 5587 5588 5590 5592 5593 5595 5597 5598 5599 5601 5603 5604 5605 5607 5608 5609 5611 5612 5614 5615 5617 5619 5620 5622 5623 5625 5626 5628 5629 5630 5631 5633 5634 5636 5637 5638 5639 5640 5641 5642 5643 5644 5645 5646 5647 5648 5649 5650 5651 5652 5653 5654 5655 5656 5657
5561 5562 5564 5565 5567 5568 5570 5572 5573 5575 5577 5578 5580 5582 5583 5585 5587 5589 5590 5592 5594 5595 5597 5598 5600 5601 5603 5604 5605 5607 5608 5609 5610 5612 5613 5615 5617 5618 5619 5621 5623 5624 5625 5626 5628 5629 5631 5632 5633 5634 5635 5636 5637 5638 5639 5640 5641 5642 5643 5644 5645 5647 5648 5649 5650 5651 5652 5653 5653
5559 5561 5562 5563 5565 5566 5568 5569 5571 5572 5574 5575 5577 5579 5581 5583 5584 5586 5588 5589 5591 5592 5594 5595 5597 5598 5600 5601 5603 5604 5605 5606 5607 5608 5610 5611 5613 5614 5615 5617 5618 5620 5621 5622 5624 5625 5627 5628 5629 5630 5631 5632 5633 5634 5635 5636 5637 5638 5639 5641 5642 5643 5644 5645 5646 5647 5648 5649 5650
5558 5559 5560 5562 5563 5564 5565 5567 5568 5570 5571 5573 5575 5576 5578 5579 5581 5583 5585 5586 5588 5589 5591 5592 5594 5595 5597 5598 5600 5601 5602 5603 5604 5606 5607 5608 5609 5611 5612 5613 5615 5616 5617 5619 5620 5621 5623 5624 5625 5626 5627 5628 5629 5630 5631 5632 5633 5635 5636 5637 5638 5639 5641 5642 5643 5643 5644 5645 5646
5556 5558 5558 5560 5561 5562 5563 5565 5566 5568 5569 5571 5572 5573 5575 5577 5578 5580 5582 5583 5585 5586 5588 5589 5591 5592 5594 5595 5597 5598 5599 5600 5602 5603 5604 5605 5607 5608 5609 5610 5611 5613 5614 5615 5617 5618 5619 5620 5621 5622 5623 5624 5625 5627 5628 5629 5630 5631 5633 5634 5635 5636 5637 5638 5638 5639 5640 5641 5642
5555 5556 5557 5558 5559 5561 5562 5563 5565 5566 5567 5568 5570 5571 5573 5574 5576 5577 5579 5580 5582 5583 5585 5586 5588 5589 5591 5592 5594 5595 5596 5598 5599 5600 5601 5602 5603 5605 5606 5607 5608 5609 5611 5612 5613 5615 5616 5617 5618 5619 5620 5621 5622 5623 5624 5625 5627 5628 5629 5630 5631 5632 5633 5633 5634 5635 5636 5637 5638
5553 5554 5556 5557 5558 5559 5560 5562 5563 5564 5565 5567 5568 5569 5571 5572 5573 5575 5576 5578 5579 5580 5581 5583 5584 5586 5588 5589 5590 5591 5593 5594 5595 5597 5598 5599 5600 5601 5603 5603 5605 5606 5607 5609 5610 5611 5612 5613 5614 5616 5617 5618 5619 5620 5621 5622 5623 5624 5625 5626 5627 5628 5628 5629 5630 5631 5631 5632 5633
5552 5553 5554 5555 5557 5558 5559 5560 5561 5562 5564 5565 5566 5568 5569 5570 5571 5573 5573 5575 5576 5577 5578 5580 5582 5583 5584 5585 5587 5588 5589 5591 5592 5593 5594 5596 5597 5598 5599 5600 5601 5603 5604 5605 5607 5608 5609 5610 5611 5612 5613 5614 5615 5616 5617 5618 5619 5620 5621 5622 5622 5623 5624 5625 5626 5626 5627 5628 5629
5551 5552 5553 5554 5555 5556 5558 5558 5560 5561 5562 5563 5564 5566 5567 5568 5569 5570 5571 5573 5574 5575 5576 5578 5579 5580 5581 5582 5584 5585 5586 5588 5588 5590 5591 5592 5593 5594 5596 5597 5598 5599 5600 5602 5603 5604 5605 5606 5607 5608 5609 5610 5611 5612 5613 5614 5615 5615 5616 5617 5618 5619 5620 5621 5622 5623 5623 5624 5625
5549 5551 5552 5553 5554 5555 5556 5557 5558 5559 5560 5561 5563 5564 5565 5566 5567 5568 5569 5570 5572 5573 5574 5575 5576 5578 5578 5580 5581 5582 5583 5584 5586 5587 5588 5589 5590 5591 5592 5593 5594 5596 5597 5598 5599 5601 5602 5603 5603 5604 5605 5606 5607 5608 5609 5609 5610 5611 5612 5613 5614 5615 5616 5617 5618 5618 5619 5620 5621
5548 5549 5550 5552 5553 5553 5554 5556 5557 5558 5558 5560 5561 5562 5563 5564 5565 5566 5567 5568 5569 5570 5571 5572 5573 5575 5576 5577 5578 5579 5581 5582 5583 5584 5585 5586 5587 5588 5589 5590 5591 5592 5593 5595 5596 5597 5598 5599 5600 5600 5601 5602 5603 5604 5605 5606 5606 5607 5608 5609 5610 5611 5612 5613 5613 5614 5615 5616 5617
5547 5548 5549 5550 5551 5552 5553 5554 5555 5556 5557 5558 5559 5560 5561 5562 5563 5564 5565 5566 5567 5568 5569 5570 5571 5572 5573 5574 5575 5577 5578 5579 5580 5581 5582 5583 5584 5585 5586 5587 5588 5588 5590 5591 5592 5593 5594 5595 5596 5597 5598 5598 5599 5600 5601 5602 5603 5603 5604 5605 5606 5607 5608 5608 5609 5610 5611 5612 5612
5546 5547 5548 5548 5549 5550 5551 5552 5553 5554 5555 5556 5557 5558 5559 5560 5561 5562 5563 5563 5564 5566 5567 5568 5568 5570 5571 5572 5573 5574 5575 5576 5577 5578 5579 5580 5581 5582 5583 5583 5584 5585 5586 5588 5588 5589 5590 5591 5592 5593 5594 5595 5596 5596 5597 5598 5599 5599 5600 5601 5602 5603 5603 5604 5605 5606 5607 5607 5608
5544 5545 5546 5547 5548 5549 5550 5550 5551 5552 5553 5554 5555 5556 5557 5558 5559 5559 5560 5561 5563 5563 5564 5565 5566 5567 5568 5569 5570 5571 5572 5573 5574 5575 5576 5577 5578 5579 5579 5580 5581 5582 5583 5584 5585 5586 5587 5588 5589 5590 5591 5591 5592 5593 5594 5594 5595 5596 5597 5598 5598 5599 5600 5600 5601 5602 5603 5603 5604
5543 5543 5544 5545 5546 5547 5548 5549 5549 5550 5551 5552 5553 5554 5555 5556 5557 5558 5558 5559 5560 5561 5562 5563 5564 5565 5566 5567 5568 5568 5569 5570 5571 5572 5573 5574 5575 5576 5577 5577 5578 5579 5580 5581 5582 5583 5584 5585 5586 5587 5587 5588 5589 5590 5590 5591 5592 5593 5594 5594 5595 5596 5596 5597 5598 5598 5599 5599 5600
5541 5542 5543 5543 5544 5545 5546 5547 5548 5548 5549 5550 5551 5552 5553 5553 5554 5555 5556 5557 5558 5559 5560 5561 5562 5563 5563 5564 5565 5566 5567 5568 5568 5569 5570 5571 5572 5573 5574 5575 5575 5576 5577 5578 5579 5580 5581 5582 5583 5583 5584 5585 5586 5587 5588 5588 5589 5590 5591 5591 5592 5593 5593 5594 5594 5595 5595 5596 5596
5539 5540 5541 5542 5543 5543 5544 5545 5546 5547 5548 5548 5549 5550 5551 5552 5552 5553 5554 5555 5556 5557 5558 5559 5559 5560 5561 5562 5563 5563 5564 5565 5566 5567 5567 5568 5569 5570 5571 5572 5573 5573 5574 5575 5576 5577 5578 5579 5580 5581 5581 5582 5583 5584 5585 5585 5586 5587 5588 5588 5589 5590 5590 5591 5591 5592 5592 5592 5593
5537 5538 5539 5540 5541 5541 5542 5543 5544 5544 5545 5546 5547 5548 5548 5549 5550 5551 5552 5553 5554 5555 5555 5556 5557 5558 5559 5559 5560 5561 5562 5563 5563 5564 5565 5566 5566 5567 5568 5569 5570 5571 5572 5573 5573 5574 5575 5576 5577 5578 5579 5579 5580 5581 5582 5583 5583 5584 5585 5585 5586 5587 5587 5587 5588 5588 5588 5589 5589